User: anonymous   Login
Location: St. Louis
(38.6270°N, 90.1994°W)
Time: 00:16:47
(UTC-06:00)
Language:

PRISM - Orbit

View from above orbital plane
View from above orbital plane
View from above satellite
View from above satellite

Ground track
Ground track

The orbit data is extracted from the following two-line orbital elements,

1 33493U 09002B   22026.50199335  .00001945  00000-0  16838-3 0  9998
2 33493  98.2190   5.2523 0012750 270.8325  89.1435 14.98402729707710
Epoch (UTC): 26 January 2022 12:02:52
Eccentricity: 0.0012750
inclination: 98.2190°
perigee height: 563 km
apogee height: 580 km
right ascension of ascending node: 5.2523°
argument of perigee: 270.8325°
revolutions per day: 14.98402729
mean anomaly at epoch: 89.1435°
orbit number at epoch: 70771

The dashed part of the orbit path shows where the satellite is in the earth's shadow,  

DLR